Hlavní strana
METAR-TAF:

METAR-TAF

Letiště :

Henderson City-County Airport

Henderson, Kentucky, Spojené státy americké

zeměpisná šířka: 37-49N, zeměpisná délka: 087-41W, výška: 117 m

Aktuální stav počasí

Zpráva byla vytvořena před 36 minutami, v 09:56 UTC
Bezvětří
Teplota 2°C
Vlhkost vzduchu 93%
Tlak 1019 hPa
Viditelnost: 16.1 km
Jasno

METAR: KEHR 230956Z AUTO 00000KT 10SM CLR 02/01 A3008 RMK AO2 SLP188 T00220006 FZRANO

Čas: 05:32 (10:32 UTC)


TAF: chybějící

Stav a předpovědi počasí z více než 4 000 letišť (zprávy METAR a TAF).

Červené a žluté tečky na mapě představují dostupné meteorologické stanice.

Když kurzor umístíte na tečku, zobrazí se název stanice.

Pak kliknutím zobrazíte stav a předpověď počasí.

Chcete-li změnit mapu, kliknutím na zelené tlačítko se znaménkem +mapu přiblížíte, kliknutím na zelené tlačítko se znaménkem – mapu oddálíte a kliknutím na zelené šipky přejdete na sousední mapy.


METAR-TAF: